Year,Month,Day,Hour,Minute,Value (Times are PST for temperature in C)
2019,08,07,00,00,18.50
2019,08,07,00,01,18.40
2019,08,07,00,02,18.40
2019,08,07,00,03,18.40
2019,08,07,00,04,18.40
2019,08,07,00,05,18.40
2019,08,07,00,06,18.40
2019,08,07,00,07,18.40
2019,08,07,00,08,18.40
2019,08,07,00,09,18.40
2019,08,07,00,10,18.30
2019,08,07,00,11,18.30
2019,08,07,00,12,18.30
2019,08,07,00,13,18.30
2019,08,07,00,14,18.20
2019,08,07,00,15,18.20
2019,08,07,00,16,18.20
2019,08,07,00,17,18.20
2019,08,07,00,18,18.10
2019,08,07,00,19,18.10
2019,08,07,00,20,18.10
2019,08,07,00,21,18.00
2019,08,07,00,22,18.00
2019,08,07,00,23,18.00
2019,08,07,00,24,17.90
2019,08,07,00,25,17.90
2019,08,07,00,26,17.90
2019,08,07,00,27,17.80
2019,08,07,00,28,17.80
2019,08,07,00,29,17.80
2019,08,07,00,30,17.80
2019,08,07,00,31,17.70
2019,08,07,00,32,17.70
2019,08,07,00,33,17.70
2019,08,07,00,34,17.60
2019,08,07,00,35,17.60
2019,08,07,00,36,17.60
2019,08,07,00,37,17.60
2019,08,07,00,38,17.50
2019,08,07,00,39,17.50
2019,08,07,00,40,17.50
2019,08,07,00,41,17.40
2019,08,07,00,42,17.40
2019,08,07,00,43,17.40
2019,08,07,00,44,17.40
2019,08,07,00,45,17.40
2019,08,07,00,46,17.40
2019,08,07,00,47,17.30
2019,08,07,00,48,17.30
2019,08,07,00,49,17.30
2019,08,07,00,50,17.30
2019,08,07,00,51,17.30
2019,08,07,00,52,17.20
2019,08,07,00,53,17.20
2019,08,07,00,54,17.20
2019,08,07,00,55,17.20
2019,08,07,00,56,17.20
2019,08,07,00,57,17.20
2019,08,07,00,58,17.20
2019,08,07,00,59,17.20
2019,08,07,01,00,17.20
2019,08,07,01,01,17.20
2019,08,07,01,02,17.10
2019,08,07,01,03,17.10
2019,08,07,01,04,17.10
2019,08,07,01,05,17.10
2019,08,07,01,06,17.10
2019,08,07,01,07,17.10
2019,08,07,01,08,17.00
2019,08,07,01,09,17.10
2019,08,07,01,10,17.00
2019,08,07,01,11,17.00
2019,08,07,01,12,17.00
2019,08,07,01,13,17.00
2019,08,07,01,14,17.00
2019,08,07,01,15,16.90
2019,08,07,01,16,16.90
2019,08,07,01,17,16.90
2019,08,07,01,18,16.90
2019,08,07,01,19,16.80
2019,08,07,01,20,16.80
2019,08,07,01,21,16.80
2019,08,07,01,22,16.80
2019,08,07,01,23,16.80
2019,08,07,01,24,16.70
2019,08,07,01,25,16.70
2019,08,07,01,26,16.70
2019,08,07,01,27,16.60
2019,08,07,01,28,16.60
2019,08,07,01,29,16.60
2019,08,07,01,30,16.60
2019,08,07,01,31,16.50
2019,08,07,01,32,16.50
2019,08,07,01,33,16.50
2019,08,07,01,34,16.50
2019,08,07,01,35,16.50
2019,08,07,01,36,16.40
2019,08,07,01,37,16.40
2019,08,07,01,38,16.40
2019,08,07,01,39,16.40
2019,08,07,01,40,16.30
2019,08,07,01,41,16.30
2019,08,07,01,42,16.30
2019,08,07,01,43,16.30
2019,08,07,01,44,16.20
2019,08,07,01,45,16.20
2019,08,07,01,46,16.20
2019,08,07,01,47,16.20
2019,08,07,01,48,16.20
2019,08,07,01,49,16.20
2019,08,07,01,50,16.10
2019,08,07,01,51,16.10
2019,08,07,01,52,16.10
2019,08,07,01,53,16.10
2019,08,07,01,54,16.10
2019,08,07,01,55,16.10
2019,08,07,01,56,16.10
2019,08,07,01,57,16.00
2019,08,07,01,58,16.00
2019,08,07,01,59,16.00
2019,08,07,02,00,16.00
2019,08,07,02,01,15.90
2019,08,07,02,02,15.90
2019,08,07,02,03,15.90
2019,08,07,02,04,15.90
2019,08,07,02,05,15.80
2019,08,07,02,06,15.80
2019,08,07,02,07,15.80
2019,08,07,02,08,15.80
2019,08,07,02,09,15.80
2019,08,07,02,10,15.80
2019,08,07,02,11,15.80
2019,08,07,02,12,15.80
2019,08,07,02,13,15.80
2019,08,07,02,14,15.70
2019,08,07,02,15,15.70
2019,08,07,02,16,15.70
2019,08,07,02,17,15.70
2019,08,07,02,18,15.70
2019,08,07,02,19,15.70
2019,08,07,02,20,15.70
2019,08,07,02,21,15.60
2019,08,07,02,22,15.60
2019,08,07,02,23,15.60
2019,08,07,02,24,15.60
2019,08,07,02,25,15.60
2019,08,07,02,26,15.60
2019,08,07,02,27,15.60
2019,08,07,02,28,15.60
2019,08,07,02,29,15.50
2019,08,07,02,30,15.50
2019,08,07,02,31,15.50
2019,08,07,02,32,15.50
2019,08,07,02,33,15.50
2019,08,07,02,34,15.50
2019,08,07,02,35,15.50
2019,08,07,02,36,15.40
2019,08,07,02,37,15.40
2019,08,07,02,38,15.40
2019,08,07,02,39,15.40
2019,08,07,02,40,15.40
2019,08,07,02,41,15.40
2019,08,07,02,42,15.40
2019,08,07,02,43,15.40
2019,08,07,02,44,15.40
2019,08,07,02,45,15.30
2019,08,07,02,46,15.30
2019,08,07,02,47,15.30
2019,08,07,02,48,15.30
2019,08,07,02,49,15.30
2019,08,07,02,50,15.20
2019,08,07,02,51,15.20
2019,08,07,02,52,15.20
2019,08,07,02,53,15.20
2019,08,07,02,54,15.10
2019,08,07,02,55,15.10
2019,08,07,02,56,15.10
2019,08,07,02,57,15.10
2019,08,07,02,58,15.10
2019,08,07,02,59,15.00
2019,08,07,03,00,15.00
2019,08,07,03,01,15.00
2019,08,07,03,02,14.90
2019,08,07,03,03,14.90
2019,08,07,03,04,14.90
2019,08,07,03,05,14.90
2019,08,07,03,06,14.90
2019,08,07,03,07,14.80
2019,08,07,03,08,14.80
2019,08,07,03,09,14.80
2019,08,07,03,10,14.80
2019,08,07,03,11,14.80
2019,08,07,03,12,14.80
2019,08,07,03,13,14.70
2019,08,07,03,14,14.70
2019,08,07,03,15,14.70
2019,08,07,03,16,14.70
2019,08,07,03,17,14.70
2019,08,07,03,18,14.70
2019,08,07,03,19,14.70
2019,08,07,03,20,14.70
2019,08,07,03,21,14.70
2019,08,07,03,22,14.70
2019,08,07,03,23,14.70
2019,08,07,03,24,14.70
2019,08,07,03,25,14.70
2019,08,07,03,26,14.70
2019,08,07,03,27,14.70
2019,08,07,03,28,14.70
2019,08,07,03,29,14.70
2019,08,07,03,30,14.60
2019,08,07,03,31,14.60
2019,08,07,03,32,14.60
2019,08,07,03,33,14.60
2019,08,07,03,34,14.60
2019,08,07,03,35,14.60
2019,08,07,03,36,14.60
2019,08,07,03,37,14.60
2019,08,07,03,38,14.60
2019,08,07,03,39,14.60
2019,08,07,03,40,14.60
2019,08,07,03,41,14.60
2019,08,07,03,42,14.60
2019,08,07,03,43,14.50
2019,08,07,03,44,14.60
2019,08,07,03,45,14.50
2019,08,07,03,46,14.50
2019,08,07,03,47,14.50
2019,08,07,03,48,14.50
2019,08,07,03,49,14.50
2019,08,07,03,50,14.50
2019,08,07,03,51,14.50
2019,08,07,03,52,14.50
2019,08,07,03,53,14.40
2019,08,07,03,54,14.40
2019,08,07,03,55,14.40
2019,08,07,03,56,14.40
2019,08,07,03,57,14.40
2019,08,07,03,58,14.40
2019,08,07,03,59,14.30
2019,08,07,04,00,14.30
2019,08,07,04,01,14.30
2019,08,07,04,02,14.30
2019,08,07,04,03,14.30
2019,08,07,04,04,14.30
2019,08,07,04,05,14.30
2019,08,07,04,06,14.30
2019,08,07,04,07,14.30
2019,08,07,04,08,14.30
2019,08,07,04,09,14.30
2019,08,07,04,10,14.30
2019,08,07,04,11,14.20
2019,08,07,04,12,14.20
2019,08,07,04,13,14.20
2019,08,07,04,14,14.20
2019,08,07,04,15,14.20
2019,08,07,04,16,14.20
2019,08,07,04,17,14.20
2019,08,07,04,18,14.20
2019,08,07,04,19,14.20
2019,08,07,04,20,14.20
2019,08,07,04,21,14.20
2019,08,07,04,22,14.20
2019,08,07,04,23,14.20
2019,08,07,04,24,14.20
2019,08,07,04,25,14.20
2019,08,07,04,26,14.20
2019,08,07,04,27,14.20
2019,08,07,04,28,14.20
2019,08,07,04,29,14.20
2019,08,07,04,30,14.20
2019,08,07,04,31,14.20
2019,08,07,04,32,14.20
2019,08,07,04,33,14.20
2019,08,07,04,34,14.20
2019,08,07,04,35,14.20
2019,08,07,04,36,14.20
2019,08,07,04,37,14.20
2019,08,07,04,38,14.10
2019,08,07,04,39,14.10
2019,08,07,04,40,14.10
2019,08,07,04,41,14.10
2019,08,07,04,42,14.10
2019,08,07,04,43,14.10
2019,08,07,04,44,14.10
2019,08,07,04,45,14.10
2019,08,07,04,46,14.10
2019,08,07,04,47,14.00
2019,08,07,04,48,14.00
2019,08,07,04,49,14.00
2019,08,07,04,50,14.00
2019,08,07,04,51,14.00
2019,08,07,04,52,14.00
2019,08,07,04,53,14.00
2019,08,07,04,54,14.00
2019,08,07,04,55,14.00
2019,08,07,04,56,14.00
2019,08,07,04,57,14.00
2019,08,07,04,58,13.90
2019,08,07,04,59,13.90
2019,08,07,05,00,13.90
2019,08,07,05,01,13.90
2019,08,07,05,02,13.90
2019,08,07,05,03,13.90
2019,08,07,05,04,13.90
2019,08,07,05,05,13.90
2019,08,07,05,06,13.90
2019,08,07,05,07,13.90
2019,08,07,05,08,13.80
2019,08,07,05,09,13.90
2019,08,07,05,10,13.90
2019,08,07,05,11,13.80
2019,08,07,05,12,13.80
2019,08,07,05,13,13.80
2019,08,07,05,14,13.80
2019,08,07,05,15,13.80
2019,08,07,05,16,13.70
2019,08,07,05,17,13.70
2019,08,07,05,18,13.70
2019,08,07,05,19,13.70
2019,08,07,05,20,13.70
2019,08,07,05,21,13.70
2019,08,07,05,22,13.70
2019,08,07,05,23,13.70
2019,08,07,05,24,13.70
2019,08,07,05,25,13.70
2019,08,07,05,26,13.60
2019,08,07,05,27,13.60
2019,08,07,05,28,13.60
2019,08,07,05,29,13.60
2019,08,07,05,30,13.60
2019,08,07,05,31,13.50
2019,08,07,05,32,13.50
2019,08,07,05,33,13.50
2019,08,07,05,34,13.50
2019,08,07,05,35,13.50
2019,08,07,05,36,13.40
2019,08,07,05,37,13.40
2019,08,07,05,38,13.40
2019,08,07,05,39,13.40
2019,08,07,05,40,13.40
2019,08,07,05,41,13.40
2019,08,07,05,42,13.40
2019,08,07,05,43,13.40
2019,08,07,05,44,13.40
2019,08,07,05,45,13.40
2019,08,07,05,46,13.40
2019,08,07,05,47,13.40
2019,08,07,05,48,13.40
2019,08,07,05,49,13.30
2019,08,07,05,50,13.30
2019,08,07,05,51,13.30
2019,08,07,05,52,13.30
2019,08,07,05,53,13.30
2019,08,07,05,54,13.30
2019,08,07,05,55,13.30
2019,08,07,05,56,13.30
2019,08,07,05,57,13.30
2019,08,07,05,58,13.30
2019,08,07,05,59,13.30
2019,08,07,06,00,13.30
2019,08,07,06,01,13.30
2019,08,07,06,02,13.20
2019,08,07,06,03,13.20
2019,08,07,06,04,13.20
2019,08,07,06,05,13.20
2019,08,07,06,06,13.20
2019,08,07,06,07,13.20
2019,08,07,06,08,13.10
2019,08,07,06,09,13.10
2019,08,07,06,10,13.10
2019,08,07,06,11,13.10
2019,08,07,06,12,13.10
2019,08,07,06,13,13.10
2019,08,07,06,14,13.10
2019,08,07,06,15,13.10
2019,08,07,06,16,13.10
2019,08,07,06,17,13.10
2019,08,07,06,18,13.10
2019,08,07,06,19,13.10
2019,08,07,06,20,13.10
2019,08,07,06,21,13.10
2019,08,07,06,22,13.10
2019,08,07,06,23,13.10
2019,08,07,06,24,13.10
2019,08,07,06,25,13.10
2019,08,07,06,26,13.10
2019,08,07,06,27,13.10
2019,08,07,06,28,13.20
2019,08,07,06,29,13.20
2019,08,07,06,30,13.20
2019,08,07,06,31,13.20
2019,08,07,06,32,13.20
2019,08,07,06,33,13.20
2019,08,07,06,34,13.20
2019,08,07,06,35,13.20
2019,08,07,06,36,13.20
2019,08,07,06,37,13.20
2019,08,07,06,38,13.30
2019,08,07,06,39,13.30
2019,08,07,06,40,13.30
2019,08,07,06,41,13.30
2019,08,07,06,42,13.30
2019,08,07,06,43,13.30
2019,08,07,06,44,13.30
2019,08,07,06,45,13.30
2019,08,07,06,46,13.30
2019,08,07,06,47,13.30
2019,08,07,06,48,13.40
2019,08,07,06,49,13.40
2019,08,07,06,50,13.40
2019,08,07,06,51,13.40
2019,08,07,06,52,13.50
2019,08,07,06,53,13.50
2019,08,07,06,54,13.50
2019,08,07,06,55,13.60
2019,08,07,06,56,13.60
2019,08,07,06,57,13.60
2019,08,07,06,58,13.70
2019,08,07,06,59,13.70
2019,08,07,07,00,13.70
2019,08,07,07,01,13.80
2019,08,07,07,02,13.80
2019,08,07,07,03,13.90
2019,08,07,07,04,13.90
2019,08,07,07,05,13.90
2019,08,07,07,06,14.00
2019,08,07,07,07,14.00
2019,08,07,07,08,14.10
2019,08,07,07,09,14.20
2019,08,07,07,10,14.20
2019,08,07,07,11,14.30
2019,08,07,07,12,14.30
2019,08,07,07,13,14.40
2019,08,07,07,14,14.50
2019,08,07,07,15,14.60
2019,08,07,07,16,14.60
2019,08,07,07,17,14.70
2019,08,07,07,18,14.80
2019,08,07,07,19,14.90
2019,08,07,07,20,14.90
2019,08,07,07,21,15.00
2019,08,07,07,22,15.00
2019,08,07,07,23,15.10
2019,08,07,07,24,15.20
2019,08,07,07,25,15.20
2019,08,07,07,26,15.30
2019,08,07,07,27,15.30
2019,08,07,07,28,15.40
2019,08,07,07,29,15.50
2019,08,07,07,30,15.50
2019,08,07,07,31,15.60
2019,08,07,07,32,15.70
2019,08,07,07,33,15.80
2019,08,07,07,34,15.80
2019,08,07,07,35,15.90
2019,08,07,07,36,15.90
2019,08,07,07,37,16.00
2019,08,07,07,38,16.10
2019,08,07,07,39,16.10
2019,08,07,07,40,16.20
2019,08,07,07,41,16.30
2019,08,07,07,42,16.30
2019,08,07,07,43,16.30
2019,08,07,07,44,16.40
2019,08,07,07,45,16.40
2019,08,07,07,46,16.50
2019,08,07,07,47,16.50
2019,08,07,07,48,16.50
2019,08,07,07,49,16.60
2019,08,07,07,50,16.60
2019,08,07,07,51,16.70
2019,08,07,07,52,16.70
2019,08,07,07,53,16.80
2019,08,07,07,54,16.90
2019,08,07,07,55,16.90
2019,08,07,07,56,17.10
2019,08,07,07,57,17.20
2019,08,07,07,58,17.30
2019,08,07,07,59,17.40
2019,08,07,08,00,17.50
2019,08,07,08,01,17.60
2019,08,07,08,02,17.70
2019,08,07,08,03,17.80
2019,08,07,08,04,17.90
2019,08,07,08,05,18.00
2019,08,07,08,06,18.10
2019,08,07,08,07,18.20
2019,08,07,08,08,18.20
2019,08,07,08,09,18.30
2019,08,07,08,10,18.40
2019,08,07,08,11,18.50
2019,08,07,08,12,18.60
2019,08,07,08,13,18.60
2019,08,07,08,14,18.70
2019,08,07,08,15,18.70
2019,08,07,08,16,18.80
2019,08,07,08,17,18.80
2019,08,07,08,18,18.80
2019,08,07,08,19,18.90
2019,08,07,08,20,18.90
2019,08,07,08,21,18.90
2019,08,07,08,22,18.90
2019,08,07,08,23,19.00
2019,08,07,08,24,19.10
2019,08,07,08,25,19.10
2019,08,07,08,26,19.20
2019,08,07,08,27,19.20
2019,08,07,08,28,19.20
2019,08,07,08,29,19.20
2019,08,07,08,30,19.20
2019,08,07,08,31,19.20
2019,08,07,08,32,19.20
2019,08,07,08,33,19.20
2019,08,07,08,34,19.20
2019,08,07,08,35,19.10
2019,08,07,08,36,19.00
2019,08,07,08,37,18.90
2019,08,07,08,38,18.90
2019,08,07,08,39,18.80
2019,08,07,08,40,18.80
2019,08,07,08,41,18.80
2019,08,07,08,42,18.70
2019,08,07,08,43,18.70
2019,08,07,08,44,18.70
2019,08,07,08,45,18.70
2019,08,07,08,46,18.70
2019,08,07,08,47,18.70
2019,08,07,08,48,18.70
2019,08,07,08,49,18.70
2019,08,07,08,50,18.80
2019,08,07,08,51,18.80
2019,08,07,08,52,18.80
2019,08,07,08,53,18.80
2019,08,07,08,54,18.90
2019,08,07,08,55,18.90
2019,08,07,08,56,18.90
2019,08,07,08,57,18.90
2019,08,07,08,58,19.00
2019,08,07,08,59,19.00
2019,08,07,09,00,19.10
2019,08,07,09,01,19.10
2019,08,07,09,02,19.20
2019,08,07,09,03,19.20
2019,08,07,09,04,19.30
2019,08,07,09,05,19.30
2019,08,07,09,06,19.30
2019,08,07,09,07,19.30
2019,08,07,09,08,19.40
2019,08,07,09,09,19.40
2019,08,07,09,10,19.40
2019,08,07,09,11,19.50
2019,08,07,09,12,19.50
2019,08,07,09,13,19.60
2019,08,07,09,14,19.60
2019,08,07,09,15,19.70
2019,08,07,09,16,19.70
2019,08,07,09,17,19.80
2019,08,07,09,18,19.90
2019,08,07,09,19,20.00
2019,08,07,09,20,20.00
2019,08,07,09,21,20.10
2019,08,07,09,22,20.10
2019,08,07,09,23,20.20
2019,08,07,09,24,20.20
2019,08,07,09,25,20.20
2019,08,07,09,26,20.20
2019,08,07,09,27,20.20
2019,08,07,09,28,20.10
2019,08,07,09,29,20.10
2019,08,07,09,30,20.10
2019,08,07,09,31,20.10
2019,08,07,09,32,20.10
2019,08,07,09,33,20.10
2019,08,07,09,34,20.10
2019,08,07,09,35,20.10
2019,08,07,09,36,20.10
2019,08,07,09,37,20.20
2019,08,07,09,38,20.20
2019,08,07,09,39,20.20
2019,08,07,09,40,20.20
2019,08,07,09,41,20.30
2019,08,07,09,42,20.30
2019,08,07,09,43,20.30
2019,08,07,09,44,20.30
2019,08,07,09,45,20.30
2019,08,07,09,46,20.30
2019,08,07,09,47,20.30
2019,08,07,09,48,20.40
2019,08,07,09,49,20.40
2019,08,07,09,50,20.50
2019,08,07,09,51,20.60
2019,08,07,09,52,20.60
2019,08,07,09,53,20.60
2019,08,07,09,54,20.70
2019,08,07,09,55,20.70
2019,08,07,09,56,20.70
2019,08,07,09,57,20.70
2019,08,07,09,58,20.80
2019,08,07,09,59,20.80
2019,08,07,10,00,20.80
2019,08,07,10,01,20.90
2019,08,07,10,02,20.90
2019,08,07,10,03,21.10
2019,08,07,10,04,21.10
2019,08,07,10,05,21.20
2019,08,07,10,06,21.10
2019,08,07,10,07,21.10
2019,08,07,10,08,21.10
2019,08,07,10,09,21.10
2019,08,07,10,10,21.10
2019,08,07,10,11,21.10
2019,08,07,10,12,21.10
2019,08,07,10,13,21.20
2019,08,07,10,14,21.20
2019,08,07,10,15,21.20
2019,08,07,10,16,21.20
2019,08,07,10,17,21.10
2019,08,07,10,18,21.10
2019,08,07,10,19,21.20
2019,08,07,10,20,21.20
2019,08,07,10,21,21.30
2019,08,07,10,22,21.30
2019,08,07,10,23,21.40
2019,08,07,10,24,21.40
2019,08,07,10,25,21.50
2019,08,07,10,26,21.50
2019,08,07,10,27,21.60
2019,08,07,10,28,21.60
2019,08,07,10,29,21.60
2019,08,07,10,30,21.70
2019,08,07,10,31,21.70
2019,08,07,10,32,21.70
2019,08,07,10,33,21.70
2019,08,07,10,34,21.70
2019,08,07,10,35,21.60
2019,08,07,10,36,21.60
2019,08,07,10,37,21.60
2019,08,07,10,38,21.60
2019,08,07,10,39,21.60
2019,08,07,10,40,21.60
2019,08,07,10,41,21.50
2019,08,07,10,42,21.50
2019,08,07,10,43,21.50
2019,08,07,10,44,21.40
2019,08,07,10,45,21.40
2019,08,07,10,46,21.40
2019,08,07,10,47,21.50
2019,08,07,10,48,21.60
2019,08,07,10,49,21.60
2019,08,07,10,50,21.50
2019,08,07,10,51,21.50
2019,08,07,10,52,21.50
2019,08,07,10,53,21.30
2019,08,07,10,54,21.20
2019,08,07,10,55,21.00
2019,08,07,10,56,21.00
2019,08,07,10,57,20.90
2019,08,07,10,58,20.90
2019,08,07,10,59,21.00
2019,08,07,11,00,21.10
2019,08,07,11,01,21.20
2019,08,07,11,02,21.40
2019,08,07,11,03,21.40
2019,08,07,11,04,21.50
2019,08,07,11,05,21.60
2019,08,07,11,06,21.70
2019,08,07,11,07,21.70
2019,08,07,11,08,21.70
2019,08,07,11,09,21.60
2019,08,07,11,10,21.60
2019,08,07,11,11,21.50
2019,08,07,11,12,21.30
2019,08,07,11,13,21.10
2019,08,07,11,14,20.90
2019,08,07,11,15,20.70
2019,08,07,11,16,20.60
2019,08,07,11,17,20.60
2019,08,07,11,18,20.60
2019,08,07,11,19,20.60
2019,08,07,11,20,20.60
2019,08,07,11,21,20.60
2019,08,07,11,22,20.70
2019,08,07,11,23,20.70
2019,08,07,11,24,20.80
2019,08,07,11,25,20.80
2019,08,07,11,26,20.90
2019,08,07,11,27,20.90
2019,08,07,11,28,20.80
2019,08,07,11,29,20.80
2019,08,07,11,30,20.80
2019,08,07,11,31,20.80
2019,08,07,11,32,20.80
2019,08,07,11,33,20.80
2019,08,07,11,34,20.80
2019,08,07,11,35,20.90
2019,08,07,11,36,20.90
2019,08,07,11,37,21.00
2019,08,07,11,38,21.00
2019,08,07,11,39,21.10
2019,08,07,11,40,21.10
2019,08,07,11,41,21.20
2019,08,07,11,42,21.20
2019,08,07,11,43,21.20
2019,08,07,11,44,21.20
2019,08,07,11,45,21.20
2019,08,07,11,46,21.20
2019,08,07,11,47,21.20
2019,08,07,11,48,21.10
2019,08,07,11,49,21.10
2019,08,07,11,50,21.00
2019,08,07,11,51,21.00
2019,08,07,11,52,21.00
2019,08,07,11,53,21.00
2019,08,07,11,54,21.00
2019,08,07,11,55,21.00
2019,08,07,11,56,21.00
2019,08,07,11,57,21.00
2019,08,07,11,58,21.10
2019,08,07,11,59,21.10
2019,08,07,12,00,21.10
2019,08,07,12,01,21.10
2019,08,07,12,02,21.10
2019,08,07,12,03,21.20
2019,08,07,12,04,21.30
2019,08,07,12,05,21.30
2019,08,07,12,06,21.40
2019,08,07,12,07,21.40
2019,08,07,12,08,21.50
2019,08,07,12,09,21.60
2019,08,07,12,10,21.70
2019,08,07,12,11,21.80
2019,08,07,12,12,21.80
2019,08,07,12,13,21.90
2019,08,07,12,14,22.00
2019,08,07,12,15,22.10
2019,08,07,12,16,22.20
2019,08,07,12,17,22.30
2019,08,07,12,18,22.30
2019,08,07,12,19,22.40
2019,08,07,12,20,22.40
2019,08,07,12,21,22.40
2019,08,07,12,22,22.40
2019,08,07,12,23,22.40
2019,08,07,12,24,22.40
2019,08,07,12,25,22.40
2019,08,07,12,26,22.40
2019,08,07,12,27,22.50
2019,08,07,12,28,22.60
2019,08,07,12,29,22.80
2019,08,07,12,30,22.80
2019,08,07,12,31,22.90
2019,08,07,12,32,23.00
2019,08,07,12,33,23.00
2019,08,07,12,34,23.10
2019,08,07,12,35,23.10
2019,08,07,12,36,23.10
2019,08,07,12,37,23.00
2019,08,07,12,38,22.80
2019,08,07,12,39,22.80
2019,08,07,12,40,22.70
2019,08,07,12,41,22.60
2019,08,07,12,42,22.50
2019,08,07,12,43,22.40
2019,08,07,12,44,22.40
2019,08,07,12,45,22.30
2019,08,07,12,46,22.20
2019,08,07,12,47,22.20
2019,08,07,12,48,22.20
2019,08,07,12,49,22.10
2019,08,07,12,50,22.00
2019,08,07,12,51,21.90
2019,08,07,12,52,21.90
2019,08,07,12,53,21.80
2019,08,07,12,54,21.80
2019,08,07,12,55,21.80
2019,08,07,12,56,21.80
2019,08,07,12,57,21.80
2019,08,07,12,58,21.80
2019,08,07,12,59,21.80
2019,08,07,13,00,21.80
2019,08,07,13,01,21.80
2019,08,07,13,02,21.80
2019,08,07,13,03,21.80
2019,08,07,13,04,21.80
2019,08,07,13,05,21.90
2019,08,07,13,06,21.90
2019,08,07,13,07,22.00
2019,08,07,13,08,22.10
2019,08,07,13,09,22.10
2019,08,07,13,10,22.10
2019,08,07,13,11,22.20
2019,08,07,13,12,22.20
2019,08,07,13,13,22.20
2019,08,07,13,14,22.20
2019,08,07,13,15,22.20
2019,08,07,13,16,22.10
2019,08,07,13,17,22.10
2019,08,07,13,18,22.10
2019,08,07,13,19,22.10
2019,08,07,13,20,22.10
2019,08,07,13,21,22.20
2019,08,07,13,22,22.20
2019,08,07,13,23,22.20
2019,08,07,13,24,22.20
2019,08,07,13,25,22.20
2019,08,07,13,26,22.20
2019,08,07,13,27,22.10
2019,08,07,13,28,22.10
2019,08,07,13,29,22.10
2019,08,07,13,30,22.10
2019,08,07,13,31,22.10
2019,08,07,13,32,22.10
2019,08,07,13,33,22.10
2019,08,07,13,34,22.10
2019,08,07,13,35,22.10
2019,08,07,13,36,22.10
2019,08,07,13,37,22.10
2019,08,07,13,38,22.20
2019,08,07,13,39,22.20
2019,08,07,13,40,22.30
2019,08,07,13,41,22.40
2019,08,07,13,42,22.40
2019,08,07,13,43,22.50
2019,08,07,13,44,22.40
2019,08,07,13,45,22.40
2019,08,07,13,46,22.30
2019,08,07,13,47,22.30
2019,08,07,13,48,22.30
2019,08,07,13,49,22.30
2019,08,07,13,50,22.20
2019,08,07,13,51,22.20
2019,08,07,13,52,22.20
2019,08,07,13,53,22.20
2019,08,07,13,54,22.20
2019,08,07,13,55,22.20
2019,08,07,13,56,22.10
2019,08,07,13,57,22.00
2019,08,07,13,58,22.00
2019,08,07,13,59,21.90
2019,08,07,14,00,21.80
2019,08,07,14,01,21.70
2019,08,07,14,02,21.60
2019,08,07,14,03,21.60
2019,08,07,14,04,21.50
2019,08,07,14,05,21.50
2019,08,07,14,06,21.60
2019,08,07,14,07,21.60
2019,08,07,14,08,21.60
2019,08,07,14,09,21.50
2019,08,07,14,10,21.40
2019,08,07,14,11,21.30
2019,08,07,14,12,21.30
2019,08,07,14,13,21.30
2019,08,07,14,14,21.30
2019,08,07,14,15,21.30
2019,08,07,14,16,21.30
2019,08,07,14,17,21.40
2019,08,07,14,18,21.40
2019,08,07,14,19,21.50
2019,08,07,14,20,21.50
2019,08,07,14,21,21.40
2019,08,07,14,22,21.40
2019,08,07,14,23,21.30
2019,08,07,14,24,21.30
2019,08,07,14,25,21.40
2019,08,07,14,26,21.50
2019,08,07,14,27,21.50
2019,08,07,14,28,21.50
2019,08,07,14,29,21.50
2019,08,07,14,30,21.50
2019,08,07,14,31,21.40
2019,08,07,14,32,21.40
2019,08,07,14,33,21.30
2019,08,07,14,34,21.30
2019,08,07,14,35,21.30
2019,08,07,14,36,21.30
2019,08,07,14,37,21.30
2019,08,07,14,38,21.30
2019,08,07,14,39,21.40
2019,08,07,14,40,21.40
2019,08,07,14,41,21.40
2019,08,07,14,42,21.40
2019,08,07,14,43,21.50
2019,08,07,14,44,21.60
2019,08,07,14,45,21.60
2019,08,07,14,46,21.70
2019,08,07,14,47,21.70
2019,08,07,14,48,21.80
2019,08,07,14,49,21.80
2019,08,07,14,50,21.80
2019,08,07,14,51,21.90
2019,08,07,14,52,22.00
2019,08,07,14,53,22.10
2019,08,07,14,54,22.10
2019,08,07,14,55,22.20
2019,08,07,14,56,22.20
2019,08,07,14,57,22.20
2019,08,07,14,58,22.20
2019,08,07,14,59,22.20
2019,08,07,15,00,22.20
2019,08,07,15,01,22.20
2019,08,07,15,02,22.20
2019,08,07,15,03,22.20
2019,08,07,15,04,22.10
2019,08,07,15,05,22.20
2019,08,07,15,06,22.20
2019,08,07,15,07,22.20
2019,08,07,15,08,22.30
2019,08,07,15,09,22.30
2019,08,07,15,10,22.30
2019,08,07,15,11,22.40
2019,08,07,15,12,22.40
2019,08,07,15,13,22.40
2019,08,07,15,14,22.40
2019,08,07,15,15,22.40
2019,08,07,15,16,22.40
2019,08,07,15,17,22.40
2019,08,07,15,18,22.40
2019,08,07,15,19,22.40
2019,08,07,15,20,22.40
2019,08,07,15,21,22.50
2019,08,07,15,22,22.50
2019,08,07,15,23,22.60
2019,08,07,15,24,22.70
2019,08,07,15,25,22.70
2019,08,07,15,26,22.80
2019,08,07,15,27,22.90
2019,08,07,15,28,22.90
2019,08,07,15,29,22.90
2019,08,07,15,30,23.00
2019,08,07,15,31,23.00
2019,08,07,15,32,23.10
2019,08,07,15,33,23.20
2019,08,07,15,34,23.30
2019,08,07,15,35,23.30
2019,08,07,15,36,23.30
2019,08,07,15,37,23.40
2019,08,07,15,38,23.50
2019,08,07,15,39,23.60
2019,08,07,15,40,23.60
2019,08,07,15,41,23.70
2019,08,07,15,42,23.60
2019,08,07,15,43,23.60
2019,08,07,15,44,23.50
2019,08,07,15,45,23.50
2019,08,07,15,46,23.50
2019,08,07,15,47,23.50
2019,08,07,15,48,23.50
2019,08,07,15,49,23.50
2019,08,07,15,50,23.50
2019,08,07,15,51,23.50
2019,08,07,15,52,23.50
2019,08,07,15,53,23.60
2019,08,07,15,54,23.60
2019,08,07,15,55,23.60
2019,08,07,15,56,23.60
2019,08,07,15,57,23.60
2019,08,07,15,58,23.60
2019,08,07,15,59,23.50
2019,08,07,16,00,23.40
2019,08,07,16,01,23.30
2019,08,07,16,02,23.30
2019,08,07,16,03,23.20
2019,08,07,16,04,23.20
2019,08,07,16,05,23.20
2019,08,07,16,06,23.20
2019,08,07,16,07,23.20
2019,08,07,16,08,23.20
2019,08,07,16,09,23.10
2019,08,07,16,10,23.10
2019,08,07,16,11,23.00
2019,08,07,16,12,23.00
2019,08,07,16,13,22.90
2019,08,07,16,14,22.90
2019,08,07,16,15,22.90
2019,08,07,16,16,22.90
2019,08,07,16,17,22.90
2019,08,07,16,18,22.90
2019,08,07,16,19,22.90
2019,08,07,16,20,22.90
2019,08,07,16,21,23.00
2019,08,07,16,22,22.90
2019,08,07,16,23,22.90
2019,08,07,16,24,22.90
2019,08,07,16,25,22.90
2019,08,07,16,26,22.90
2019,08,07,16,27,22.90
2019,08,07,16,28,22.90
2019,08,07,16,29,22.90
2019,08,07,16,30,22.90
2019,08,07,16,31,22.90
2019,08,07,16,32,22.90
2019,08,07,16,33,22.90
2019,08,07,16,34,22.90
2019,08,07,16,35,22.90
2019,08,07,16,36,22.90
2019,08,07,16,37,22.90
2019,08,07,16,38,22.90
2019,08,07,16,39,22.90
2019,08,07,16,40,23.00
2019,08,07,16,41,23.00
2019,08,07,16,42,23.10
2019,08,07,16,43,23.10
2019,08,07,16,44,23.20
2019,08,07,16,45,23.20
2019,08,07,16,46,23.20
2019,08,07,16,47,23.30
2019,08,07,16,48,23.30
2019,08,07,16,49,23.20
2019,08,07,16,50,23.20
2019,08,07,16,51,23.20
2019,08,07,16,52,23.10
2019,08,07,16,53,23.10
2019,08,07,16,54,23.10
2019,08,07,16,55,23.10
2019,08,07,16,56,23.10
2019,08,07,16,57,23.10
2019,08,07,16,58,23.10
2019,08,07,16,59,23.10
2019,08,07,17,00,23.20
2019,08,07,17,01,23.20
2019,08,07,17,02,23.20
2019,08,07,17,03,23.20
2019,08,07,17,04,23.20
2019,08,07,17,05,23.20
2019,08,07,17,06,23.30
2019,08,07,17,07,23.30
2019,08,07,17,08,23.30
2019,08,07,17,09,23.30
2019,08,07,17,10,23.40
2019,08,07,17,11,23.40
2019,08,07,17,12,23.40
2019,08,07,17,13,23.50
2019,08,07,17,14,23.50
2019,08,07,17,15,23.60
2019,08,07,17,16,23.60
2019,08,07,17,17,23.60
2019,08,07,17,18,23.50
2019,08,07,17,19,23.50